This is the latest recevied weather packets stored in our database for station/object KC1HBM. If no packets are shown the sender has not sent any weather packets the latest 10 day(s).
| Time | Temp. | Humidity | Pressure | Rain* | Wind** | Luminosity | Snow |
|---|---|---|---|---|---|---|---|
| 1778113136 | 10.56° C | 99% | 1002.9 hPa | 0 mm | - | 0 W/m² | - |
| 1778112833 | 10.56° C | 99% | 1003.3 hPa | 0 mm | - | 0 W/m² | - |
| 1778112530 | 10.56° C | 99% | 1002.9 hPa | 0 mm | - | 0 W/m² | - |
| 1778112225 | 10.56° C | 99% | 1003 hPa | 0 mm | - | 0 W/m² | - |
| 1778111922 | 10.56° C | 99% | 1003.1 hPa | 0 mm | - | 0 W/m² | - |
| 1778111619 | 10.56° C | 99% | 1003 hPa | 0 mm | - | 0 W/m² | - |
| 1778111315 | 10.56° C | 99% | 1003.1 hPa | 0 mm | - | 0 W/m² | - |
| 1778111013 | 10.56° C | 99% | 1003.1 hPa | 0 mm | - | 0 W/m² | - |
| 1778110711 | 10.56° C | 99% | 1003.1 hPa | 0 mm | - | 0 W/m² | - |
| 1778110406 | 10.56° C | 99% | 1003 hPa | 0 mm | - | 0 W/m² | - |
| 1778110103 | 10.56° C | 99% | 1003 hPa | 0 mm | - | 0 W/m² | - |
| 1778109798 | 10.56° C | 99% | 1003 hPa | 0 mm | - | 1 W/m² | - |
| 1778109495 | 10.56° C | 99% | 1003 hPa | 0 mm | - | 2 W/m² | - |
| 1778109193 | 10.56° C | 99% | 1003.2 hPa | 0 mm | - | 0 W/m² | - |
| 1778108890 | 10.56° C | 99% | 1003.3 hPa | 0 mm | - | 1 W/m² | - |
| 1778108587 | 10.56° C | 99% | 1003.1 hPa | 0 mm | - | 4 W/m² | - |
| 1778108283 | 10.56° C | 99% | 1003.3 hPa | 0 mm | - | 7 W/m² | - |
| 1778107981 | 10.56° C | 99% | 1003.1 hPa | 0 mm | - | 6 W/m² | - |
| 1778107676 | 10.56° C | 99% | 1003.2 hPa | 0 mm | - | 7 W/m² | - |
| 1778107374 | 10.56° C | 99% | 1003.3 hPa | 0 mm | - | 7 W/m² | - |
| 1778107070 | 10.56° C | 99% | 1003.3 hPa | 0 mm | - | 10 W/m² | - |
| 1778106760 | 11.11° C | 99% | 1003.3 hPa | 0 mm | - | 7 W/m² | - |
| 1778106458 | 11.11° C | 99% | 1003.5 hPa | 1.27 mm | - | 11 W/m² | - |
| 1778106153 | 11.11° C | 99% | 1003.5 hPa | 1.27 mm | - | 16 W/m² | - |
| 1778105851 | 11.11° C | 99% | 1003.4 hPa | 0 mm | - | 16 W/m² | - |
* Rain latest hour (hover to see other rain measurements)
** Current wind speed in m/s (hover to see current wind gust speed)